User: anonymous   Login
Location: Blackwater Beach
(38.5801°N, 75.1577°W)
Time: 05:43:04
(UTC+00:00)
Language:

Resurs 1-3 - Orbit

View from above orbital plane
View from above orbital plane
View from above satellite
View from above satellite

Ground track
Ground track

The orbit is defined by the following mean orbital elements,

1 23342U          26106.76238559 +.00000000 +00000-0 +55096-4 0 00006
2 23342  97.6673 127.5662 0000955  86.2924 273.8400 14.85008851    07
Epoch (UTC): 16 April 2026 18:17:50
Eccentricity: 0.0000955
inclination: 97.6673°
perigee height: 613 km
apogee height: 614 km
right ascension of ascending node: 127.5662°
argument of perigee: 86.2924°
revolutions per day: 14.85008851
mean anomaly at epoch: 273.8400°

The dashed part of the orbit path shows where the satellite is in the earth's shadow,  

DLR